Regional Weather Roundup
Issued by NWS

Home | Current Version | Previous Version | Graphics & Text | Print | Product List | Glossary On
Versions: 1 2 3 4 5 6 7 8 9 10 11 12 13 14 15 16 17 18 19 20 21 22 23 24 25 26 27 28 29 30 31 32 33 34 35 36 37 38 39 40 41 42 43 44 45 46 47 48 49 50
000
ASUS43 KIND 110659
RWRIN

WEATHER ROUNDUP FOR INDIANA
NATIONAL WEATHER SERVICE INDIANAPOLIS IN
200 AM EST MON DEC 11 2017

NOTE: "FAIR" INDICATES FEW OR NO CLOUDS BELOW 12,000 FEET WITH NO
SIGNIFICANT WEATHER AND/OR OBSTRUCTIONS TO VISIBILITY.

* - STATION DOES NOT REPORT WEATHER SUCH AS PRECIPITATION OR FOG.

+ - STATION NOT QUALITY CONTROLLED BY THE NATIONAL WEATHER SERVICE.
    USE DATA WITH CAUTION...ESPECIALLY DEWPOINT AND RELATIVE
    HUMIDITY OBSERVATIONS.

INZ001>003-010>013-019-020-110800-
NORTHWEST INDIANA

CITY           SKY/WX    TMP DP  RH WIND       PRES   REMARKS
KNOX *+        CLOUDY    28  23  80 W7        30.07S WCI  21
LA PORTE +     MOCLDY    28  22  78 W3        30.06S
MONTICELLO +   CLEAR     19  15  86 CALM      30.07F

$$

LMZ046-743>745-110800-
SOUTHERN LAKE MICHIGAN

STATION/POSITION TIME  TEMP    WIND        PRES    WAVE
                       AIR SEA DIR/SP/G            HT
                 (UTC) (F)     (DEG/KT/KT) (MB)    (FT)
BURNS HARBOR     0640   31     340/  3/  5 1018.3F
MICHIGAN CITY    0630   31     330/  5/  7   N/A

$$

INZ004-005-014>016-021>024-110800-
NORTH CENTRAL INDIANA

CITY           SKY/WX    TMP DP  RH WIND       PRES   REMARKS
GOSHEN         CLOUDY    27  21  78 W6        30.03F WCI  20
PERU/GRISSOM   PTCLDY    25  21  84 W5        30.06S WCI  19
SOUTH BEND     CLOUDY    27  22  81 W7        30.04F WCI  19
WARSAW +       CLOUDY    28  23  80 W5        30.04F WCI  23

$$

INZ006>009-017-018-025>027-110800-
NORTHEAST INDIANA

CITY           SKY/WX    TMP DP  RH WIND       PRES   REMARKS
AUBURN +       CLOUDY    30  23  74 CALM      30.04S
FORT WAYNE     MOCLDY    30  23  75 NW5       30.04F WCI  25
KENDALLVILLE + CLOUDY    28  22  81 CALM      30.02F

$$

INZ028-029-035-036-043>045-051>053-110800-
WEST CENTRAL INDIANA

CITY           SKY/WX    TMP DP  RH WIND       PRES   REMARKS
LAFAYETTE      CLOUDY    21  19  92 CALM      30.09F
TERRE HAUTE    CLEAR     22  19  89 SW3       30.11F

$$

INZ030>032-037>040-046>048-054>057-064-065-110800-
CENTRAL INDIANA

CITY           SKY/WX    TMP DP  RH WIND       PRES   REMARKS
FRANKFORT +    CLEAR     22  19  87 W5        30.09F WCI  16
INDIANAPOLIS   CLEAR     25  20  81 W3        30.09S
-EAGLE CREEK   CLEAR     27  19  72 NW7       30.08S WCI  19
KOKOMO +       MOCLDY    26  21  81 NW6       30.07F WCI  19
MT COMFORT *+  CLEAR     19  18  93 W3        30.08F
SHELBYVILLE    CLEAR     27  19  72 NW5       30.08S WCI  22

$$

INZ033-034-041-042-049-050-058-059-110800-
EAST CENTRAL INDIANA

CITY           SKY/WX    TMP DP  RH WIND       PRES   REMARKS
MUNCIE         CLOUDY    30  22  72 NW7       30.06S WCI  23
RICHMOND +     CLOUDY    28  23  80 NW6       30.06S WCI  22

$$

INZ060-061-067>069-081>083-085>088-110800-
SOUTHWEST INDIANA

CITY           SKY/WX    TMP DP  RH WIND       PRES   REMARKS
EVANSVILLE     CLEAR     27  24  89 SW5       30.14F WCI  22
HUNTINGBURG +  CLEAR     31  25  78 CALM      30.13F

$$

INZ062-063-066-070>080-084-089>092-110800-
SOUTH CENTRAL AND SOUTHEAST INDIANA

CITY           SKY/WX    TMP DP  RH WIND       PRES   REMARKS
BLOOMINGTON    CLEAR     26  19  74 CALM      30.10R
SEYMOUR +      CLEAR     27  19  74 NW5       30.11S WCI  21

$$





USA.gov is the U.S. government's official web portal to all federal, state and local government web resources and services.